Weather History for Moriarty, NM

Change the Weather History Date:

Tuesday, June 25, 2013

  Actual Average (KABQ) Record (KABQ)
Temperature  
Mean Temperature 70 °F 77 °F  
Max Temperature 89 °F 91 °F 105 °F (1994)
Min Temperature 50 °F 64 °F 46 °F (1916)
Degree Days  
Heating Degree Days 0 0  
Month to date heating degree days 0  
Since 1 June heating degree days 0  
Since 1 July heating degree days 4175  
Cooling Degree Days 4 12  
Month to date cooling degree days 236  
Year to date cooling degree days 334  
Since 1 June cooling degree days 236  
Growing Degree Days 20 (Base 50)    
Moisture  
Dew Point 18 °F    
Average Humidity 13    
Maximum Humidity 22    
Minimum Humidity 9    
Precipitation  
Precipitation 0.00 in 0.03 in 0.21 in (1988)
Month to date precipitation 0.49  
Year to date precipitation 3.03  
Snow  
Snow 0.00 in - - ()
Month to date snowfall  
Since 1 June snowfall  
Since 1 July snowfall  
Snow Depth -    
Sea Level Pressure  
Sea Level Pressure 30.15 in    
Wind  
Wind Speed 7 mph (WNW)    
Max Wind Speed 23 mph    
Max Gust Speed 33 mph    
Visibility 10 miles    
Events      
T = Trace of Precipitation, MM = Missing Value Source: NWS Daily Summary

Daily Weather History Graph

Daily Weather History Graph

Search for Another Location

Airport:

Trip Planner

Search our weather history database for the weather conditions in past years. The results will help you decide how hot, cold, wet, or windy it might be!

Date:

Astronomy

Jun. 25, 2013 Rise Set
Actual Time 5:51 AM MDT 8:21 PM MDT
Civil Twilight 5:21 AM MDT 8:51 PM MDT
Nautical Twilight 4:45 AM MDT 9:28 PM MDT
Astronomical Twilight 4:04 AM MDT 10:08 PM MDT
Moon 10:17 PM MDT 8:28 AM MDT
Length of Visible Light 15h 29m
Length of Day
14h 30m
Waning Gibbous, 92% of the Moon is Illuminated
Jun 25
Waning Gibbous
Jun 29
Last Quarter
Jul 8
New
Jul 15
First Quarter
Jul 22
Full

Hourly Weather History & Observations

Time (MDT) Temp. Dew Point Humidity Pressure Visibility Wind Dir Wind Speed Gust Speed Precip Events Conditions
12:15 AM 59.5 °F 8.8 °F 13% 30.10 in 10.0 mi Calm Calm - N/A   Clear
12:35 AM 58.3 °F 8.4 °F 14% 30.10 in 10.0 mi Calm Calm - N/A   Clear
12:55 AM 61.5 °F 9.3 °F 13% 30.10 in 10.0 mi South 3.5 mph - N/A   Clear
1:15 AM 58.1 °F 8.4 °F 14% 30.10 in 10.0 mi SE 4.6 mph - N/A   Clear
1:35 AM 56.7 °F 7.7 °F 14% 30.10 in 10.0 mi South 3.5 mph - N/A   Clear
1:55 AM 50.5 °F 5.7 °F 16% 30.11 in 10.0 mi North 4.6 mph - N/A   Clear
2:15 AM 50.5 °F 6.1 °F 16% 30.12 in 10.0 mi ESE 3.5 mph - N/A   Clear
2:35 AM 56.1 °F 8.1 °F 15% 30.12 in 10.0 mi Calm Calm - N/A   Clear
2:55 AM 50.4 °F 5.9 °F 16% 30.12 in 10.0 mi NW 4.6 mph - N/A   Clear
3:15 AM 59.7 °F 13.5 °F 16% 30.11 in 10.0 mi West 10.4 mph - N/A   Clear
3:35 AM 65.3 °F 14.9 °F 14% 30.11 in 10.0 mi West 11.5 mph - N/A   Clear
3:55 AM 64.8 °F 14.9 °F 15% 30.12 in 10.0 mi West 10.4 mph - N/A   Clear
4:15 AM 61.7 °F 14.0 °F 16% 30.13 in 10.0 mi NW 5.8 mph - N/A   Clear
4:35 AM 55.2 °F 12.4 °F 18% 30.14 in 10.0 mi ENE 5.8 mph - N/A   Clear
4:55 AM 55.2 °F 12.6 °F 18% 30.15 in 10.0 mi NNW 5.8 mph - N/A   Clear
5:15 AM 56.1 °F 12.9 °F 18% 30.16 in 10.0 mi East 6.9 mph - N/A   Clear
5:35 AM 57.6 °F 13.6 °F 18% 30.16 in 10.0 mi SSW 3.5 mph - N/A   Clear
5:55 AM 55.6 °F 12.6 °F 18% 30.16 in 10.0 mi NNW 4.6 mph - N/A   Clear
6:15 AM 50.4 °F 12.2 °F 22% 30.17 in 10.0 mi Calm Calm - N/A   Clear
6:35 AM 55.2 °F 13.5 °F 19% 30.17 in 10.0 mi West 3.5 mph - N/A   Clear
6:55 AM 57.2 °F 13.6 °F 18% 30.17 in 10.0 mi Calm Calm - N/A   Clear
7:15 AM 62.2 °F 15.6 °F 16% 30.18 in 10.0 mi East 4.6 mph - N/A   Clear
7:35 AM 65.5 °F 17.2 °F 16% 30.18 in 10.0 mi Calm Calm - N/A   Clear
7:55 AM 69.1 °F 18.5 °F 15% 30.19 in 10.0 mi WSW 3.5 mph - N/A   Clear
8:15 AM 70.9 °F 19.4 °F 14% 30.19 in 10.0 mi WNW 4.6 mph - N/A   Clear
8:35 AM 73.4 °F 19.9 °F 13% 30.19 in 10.0 mi WNW 6.9 mph - N/A   Clear
8:55 AM 74.1 °F 20.1 °F 13% 30.20 in 10.0 mi SSW 4.6 mph - N/A   Clear
9:15 AM 76.1 °F 21.7 °F 13% 30.20 in 10.0 mi West 15.0 mph - N/A   Clear
9:35 AM 76.3 °F 22.1 °F 13% 30.20 in 10.0 mi West 10.4 mph - N/A   Clear
9:55 AM 77.2 °F 22.5 °F 13% 30.20 in 10.0 mi WNW 17.3 mph 21.9 mph N/A   Clear
10:15 AM 78.6 °F 22.6 °F 13% 30.20 in 10.0 mi WNW 19.6 mph 24.2 mph N/A   Clear
10:35 AM 79.9 °F 22.3 °F 12% 30.20 in 10.0 mi West 13.8 mph 23.0 mph N/A   Clear
10:55 AM 81.1 °F 21.4 °F 11% 30.20 in 10.0 mi WNW 17.3 mph 26.5 mph N/A   Clear
11:15 AM 80.6 °F 19.6 °F 10% 30.20 in 10.0 mi West 16.1 mph 26.5 mph N/A   Clear
11:35 AM 80.6 °F 17.6 °F 10% 30.20 in 10.0 mi WNW 19.6 mph 25.3 mph N/A   Clear
11:55 AM 80.8 °F 18.7 °F 10% 30.20 in 10.0 mi NW 15.0 mph 19.6 mph N/A   Clear
12:15 PM 83.1 °F 18.9 °F 9% 30.19 in 10.0 mi WNW 17.3 mph 24.2 mph N/A   Clear
12:35 PM 83.5 °F 17.8 °F 9% 30.18 in 10.0 mi WNW 19.6 mph 26.5 mph N/A   Clear
12:55 PM 85.1 °F 19.4 °F 9% 30.18 in 10.0 mi WNW 20.7 mph 31.1 mph N/A   Clear
1:15 PM 84.4 °F 19.9 °F 9% 30.18 in 10.0 mi West 18.4 mph 31.1 mph N/A   Clear
1:35 PM 85.3 °F 20.8 °F 9% 30.18 in 10.0 mi WNW 20.7 mph 27.6 mph N/A   Clear
1:55 PM 86.0 °F 22.1 °F 10% 30.17 in 10.0 mi WNW 16.1 mph 27.6 mph N/A   Clear
2:15 PM 86.2 °F 22.5 °F 10% 30.16 in 10.0 mi NW 17.3 mph 21.9 mph N/A   Clear
2:35 PM 87.8 °F 22.6 °F 9% 30.16 in 10.0 mi WNW 11.5 mph 20.7 mph N/A   Clear
2:55 PM 87.3 °F 22.6 °F 9% 30.16 in 10.0 mi WNW 17.3 mph 33.4 mph N/A   Clear
3:15 PM 88.2 °F 22.5 °F 9% 30.15 in 10.0 mi West 12.7 mph 21.9 mph N/A   Clear
3:35 PM 89.4 °F 22.8 °F 9% 30.14 in 10.0 mi West 18.4 mph 26.5 mph N/A   Clear
3:55 PM 89.8 °F 23.5 °F 9% 30.14 in 10.0 mi West 16.1 mph 23.0 mph N/A   Clear
4:15 PM 89.4 °F 23.9 °F 9% 30.13 in 10.0 mi West 16.1 mph 26.5 mph N/A   Clear
4:35 PM 89.6 °F 24.1 °F 9% 30.13 in 10.0 mi West 13.8 mph 27.6 mph N/A   Clear
4:55 PM 89.8 °F 24.8 °F 10% 30.12 in 10.0 mi West 13.8 mph 19.6 mph N/A   Clear
5:15 PM 89.6 °F 23.5 °F 9% 30.12 in 10.0 mi West 13.8 mph 26.5 mph N/A   Clear
5:35 PM 89.6 °F 23.2 °F 9% 30.11 in 10.0 mi West 18.4 mph 24.2 mph N/A   Clear
5:55 PM 89.1 °F 22.6 °F 9% 30.10 in 10.0 mi WNW 23.0 mph 29.9 mph N/A   Clear
6:15 PM 88.9 °F 22.6 °F 9% 30.10 in 10.0 mi WSW 13.8 mph 21.9 mph N/A   Clear
6:35 PM 88.7 °F 22.1 °F 9% 30.10 in 10.0 mi West 16.1 mph - N/A   Clear
6:55 PM 88.2 °F 22.1 °F 9% 30.10 in 10.0 mi West 13.8 mph 20.7 mph N/A   Clear
7:15 PM 87.1 °F 21.9 °F 9% 30.10 in 10.0 mi West 13.8 mph 23.0 mph N/A   Clear
7:35 PM 86.0 °F 21.7 °F 9% 30.10 in 10.0 mi West 10.4 mph - N/A   Clear
7:55 PM 83.5 °F 21.2 °F 10% 30.11 in 10.0 mi West 11.5 mph - N/A   Clear
8:15 PM 81.5 °F 21.0 °F 11% 30.11 in 10.0 mi West 10.4 mph - N/A   Clear
8:35 PM 78.4 °F 20.1 °F 11% 30.11 in 10.0 mi West 8.1 mph - N/A   Clear
8:55 PM 76.3 °F 19.4 °F 12% 30.11 in 10.0 mi West 8.1 mph - N/A   Clear
9:15 PM 70.5 °F 17.4 °F 13% 30.12 in 10.0 mi WNW 6.9 mph - N/A   Clear
9:35 PM 69.3 °F 17.2 °F 14% 30.13 in 10.0 mi NW 6.9 mph - N/A   Clear
9:55 PM 67.1 °F 16.5 °F 14% 30.14 in 10.0 mi Calm Calm - N/A   Clear
10:15 PM 67.6 °F 17.2 °F 15% 30.15 in 10.0 mi Calm Calm - N/A   Clear
10:35 PM 62.2 °F 16.0 °F 17% 30.15 in 10.0 mi Calm Calm - N/A   Clear
10:55 PM 62.6 °F 16.2 °F 17% 30.15 in 10.0 mi NNE 3.5 mph - N/A   Clear
11:15 PM 61.3 °F 15.6 °F 17% 30.15 in 10.0 mi NE 4.6 mph - N/A   Clear
11:35 PM 61.3 °F 16.2 °F 17% 30.15 in 10.0 mi Calm Calm - N/A   Clear
11:55 PM 61.5 °F 16.3 °F 17% 30.16 in 10.0 mi Calm Calm - N/A   Clear